This is the latest recevied weather packets stored in our database for station/object VE4JMP. If no packets are shown the sender has not sent any weather packets the latest 10 day(s).
| Time | Temp. | Humidity | Pressure | Rain* | Wind** | Luminosity | Snow |
|---|---|---|---|---|---|---|---|
| 1777871430 | 7.78° C | 85% | 992.7 hPa | 0 mm | - | - | - |
| 1777870816 | 7.78° C | 84% | 992.9 hPa | 0 mm | - | - | - |
| 1777864226 | 11.67° C | 66% | 994.6 hPa | 0 mm | - | - | - |
| 1777863016 | 14.44° C | 47% | 993.8 hPa | 0 mm | - | - | - |
| 1777857616 | 17.22° C | 36% | 993.8 hPa | 0 mm | - | - | - |
| 1777857020 | 17.22° C | 35% | 994.1 hPa | 0 mm | - | - | - |
| 1777856444 | 17.78° C | 32% | 993.9 hPa | 0 mm | - | - | - |
| 1777855829 | 18.33° C | 30% | 993.9 hPa | 0 mm | - | - | - |
| 1777849221 | 21.11° C | 38% | 994.5 hPa | 0 mm | - | - | - |
| 1777846818 | 21.11° C | 34% | 994.1 hPa | 0 mm | - | - | - |
| 1777845050 | 20.56° C | 32% | 995.1 hPa | 0 mm | - | - | - |
| 1777841418 | 20° C | 31% | 996.9 hPa | 0 mm | - | - | - |
| 1777839630 | 22.22° C | 28% | 997.5 hPa | 0 mm | - | - | - |
| 1777837826 | 21.67° C | 28% | 998.9 hPa | 0 mm | - | - | - |
| 1777830024 | 20.56° C | 31% | 1003.2 hPa | 0 mm | - | - | - |
| 1777828832 | 19.44° C | 35% | 1004 hPa | 0 mm | - | - | - |
| 1777827623 | 18.33° C | 36% | 1004.9 hPa | 0 mm | - | - | - |
| 1777824625 | 17.78° C | 37% | 1006.1 hPa | 0 mm | - | - | - |
| 1777822819 | 16.67° C | 39% | 1006.6 hPa | 0 mm | - | - | - |
| 1777820417 | 14.44° C | 44% | 1007.4 hPa | 0 mm | - | - | - |
| 1777817440 | 11.11° C | 52% | 1008.1 hPa | 0 mm | - | - | - |
| 1777812616 | 4.44° C | 65% | 1009 hPa | 0 mm | - | - | - |
| 1777810828 | 1.11° C | 76% | 1009.3 hPa | 0 mm | - | - | - |
| 1777808427 | -1.11° C | 80% | 1009.6 hPa | 0 mm | - | - | - |
| 1777806621 | -1.67° C | 80% | 1009.8 hPa | 0 mm | - | - | - |
* Rain latest hour (hover to see other rain measurements)
** Current wind speed in m/s (hover to see current wind gust speed)